DLH457 EDLW-EDDN

Flight info

Callsign DLH457
Flight time 0h 39m
Altitude 23000
Route GMH8Q GMH DCT ARPEG DCT AMETU DCT KERAX DCT KOMIB T193 ERTES T194 DODAS DODAS1V
Aircraft A20N/M-SDE2E3FGHIRWXY/LB1

Departure

Time 2026-05-07 18:35
Airport Dortmund Airport (EDLW)

Arrival

Time 2026-05-07 19:14
Airport Nuremberg Airport (EDDN)
Time Latitude Longitude Altitude Speed Heading
2026-05-07 17:54 51.51535 7.61183 426 ft 0 kts 153°
2026-05-07 18:24 51.51536 7.61182 433 ft 2 kts 153°
2026-05-07 18:24 51.51558 7.61168 423 ft 4 kts 178°
2026-05-07 18:24 51.51580 7.61179 417 ft 3 kts 239°
2026-05-07 18:24 51.51581 7.61182 417 ft 0 kts 241°
2026-05-07 18:30 51.51578 7.61173 417 ft 3 kts 241°
2026-05-07 18:30 51.51567 7.61118 429 ft 7 kts 269°
2026-05-07 18:31 51.51569 7.61002 419 ft 13 kts 254°
2026-05-07 18:31 51.51520 7.60852 416 ft 17 kts 241°
2026-05-07 18:31 51.51458 7.60671 419 ft 10 kts 241°
2026-05-07 18:31 51.51427 7.60584 417 ft 0 kts 240°
2026-05-07 18:32 51.51427 7.60583 418 ft 0 kts 240°
2026-05-07 18:33 51.51427 7.60582 418 ft 1 kts 240°
2026-05-07 18:33 51.51416 7.60554 419 ft 7 kts 240°
2026-05-07 18:33 51.51367 7.60407 419 ft 21 kts 246°
2026-05-07 18:33 51.51408 7.60263 424 ft 14 kts 330°
2026-05-07 18:34 51.51480 7.60246 417 ft 18 kts 25°
2026-05-07 18:34 51.51508 7.60299 420 ft 2 kts 60°
2026-05-07 18:34 51.51538 7.60390 414 ft 32 kts 62°
2026-05-07 18:34 51.51804 7.61143 417 ft 118 kts 60°
2026-05-07 18:35 51.52294 7.62551 729 ft 155 kts 62°
2026-05-07 18:35 51.52810 7.64151 1459 ft 171 kts 63°
2026-05-07 18:35 51.53410 7.65915 2192 ft 189 kts 61°
2026-05-07 18:35 51.54088 7.67792 2789 ft 201 kts 58°
2026-05-07 18:36 51.54815 7.69751 3280 ft 208 kts 58°
2026-05-07 18:36 51.55557 7.71768 4224 ft 207 kts 57°
2026-05-07 18:36 51.56228 7.73774 4721 ft 210 kts 68°
2026-05-07 18:36 51.56354 7.76205 4924 ft 236 kts 99°
2026-05-07 18:37 51.55636 7.78656 5004 ft 250 kts 129°
2026-05-07 18:37 51.54214 7.80296 5010 ft 269 kts 159°
2026-05-07 18:37 51.52349 7.80729 5000 ft 272 kts 187°
2026-05-07 18:37 51.50554 7.79852 5018 ft 272 kts 206°
2026-05-07 18:38 51.48865 7.78456 5434 ft 275 kts 209°
2026-05-07 18:38 51.47166 7.77087 6588 ft 270 kts 207°
2026-05-07 18:38 51.45442 7.75849 7693 ft 274 kts 204°
2026-05-07 18:38 51.43588 7.75004 8690 ft 282 kts 185°
2026-05-07 18:39 51.41627 7.75331 9741 ft 288 kts 163°
2026-05-07 18:39 51.39715 7.76412 10597 ft 299 kts 161°
2026-05-07 18:39 51.37678 7.77591 11028 ft 323 kts 161°
2026-05-07 18:39 51.35494 7.78844 11499 ft 342 kts 161°
2026-05-07 18:40 51.33233 7.80129 12402 ft 346 kts 161°
2026-05-07 18:40 51.30952 7.81419 13337 ft 350 kts 161°
2026-05-07 18:40 51.28638 7.82721 14191 ft 355 kts 162°
2026-05-07 18:40 51.26292 7.84039 14995 ft 359 kts 162°
2026-05-07 18:41 51.23921 7.85367 15803 ft 363 kts 162°
2026-05-07 18:41 51.21524 7.86709 16596 ft 367 kts 162°
2026-05-07 18:41 51.19125 7.88181 17367 ft 373 kts 154°
2026-05-07 18:41 51.16975 7.90546 18131 ft 380 kts 138°
2026-05-07 18:42 51.15304 7.93845 18807 ft 386 kts 122°
2026-05-07 18:42 51.13940 7.97553 19478 ft 390 kts 121°
2026-05-07 18:42 51.12569 8.01304 20144 ft 394 kts 121°
2026-05-07 18:42 51.11180 8.05089 20820 ft 397 kts 121°
2026-05-07 18:43 51.09773 8.08899 21473 ft 401 kts 121°
2026-05-07 18:43 51.08346 8.12744 22112 ft 406 kts 122°
2026-05-07 18:43 51.06904 8.16618 22733 ft 410 kts 122°
2026-05-07 18:43 51.05447 8.20529 23010 ft 412 kts 122°
2026-05-07 18:44 51.03983 8.24450 23068 ft 413 kts 122°
2026-05-07 18:44 51.02517 8.28369 23073 ft 412 kts 122°
2026-05-07 18:44 51.01057 8.32290 23073 ft 412 kts 121°
2026-05-07 18:44 50.99698 8.36300 23077 ft 413 kts 118°
2026-05-07 18:45 50.98395 8.40364 23079 ft 413 kts 118°
2026-05-07 18:45 50.97097 8.44425 23080 ft 413 kts 118°
2026-05-07 18:45 50.95785 8.48482 23082 ft 413 kts 118°
2026-05-07 18:45 50.94462 8.52525 23079 ft 413 kts 118°
2026-05-07 18:46 50.93152 8.56495 23082 ft 412 kts 118°
2026-05-07 18:46 50.91644 8.60346 23084 ft 411 kts 128°
2026-05-07 18:46 50.89893 8.63931 23083 ft 412 kts 128°
2026-05-07 18:46 50.88139 8.67515 23084 ft 411 kts 129°
2026-05-07 18:47 50.86380 8.71081 23085 ft 411 kts 129°
2026-05-07 18:47 50.84609 8.74640 23083 ft 412 kts 129°
2026-05-07 18:47 50.82831 8.78190 23084 ft 412 kts 129°
2026-05-07 18:47 50.81049 8.81736 23080 ft 411 kts 129°
2026-05-07 18:48 50.79269 8.85272 23082 ft 411 kts 129°
2026-05-07 18:48 50.77484 8.88810 23083 ft 411 kts 129°
2026-05-07 18:48 50.75700 8.92344 23083 ft 411 kts 129°
2026-05-07 18:48 50.73915 8.95875 23085 ft 411 kts 129°
2026-05-07 18:49 50.72131 8.99400 23083 ft 411 kts 129°
2026-05-07 18:49 50.70341 9.02929 23080 ft 411 kts 129°
2026-05-07 18:49 50.68554 9.06450 23080 ft 411 kts 129°
2026-05-07 18:49 50.66765 9.09970 23080 ft 411 kts 129°
2026-05-07 18:50 50.64973 9.13491 23079 ft 411 kts 129°
2026-05-07 18:50 50.63184 9.17002 23081 ft 411 kts 129°
2026-05-07 18:50 50.61389 9.20518 23080 ft 411 kts 130°
2026-05-07 18:50 50.59590 9.24039 23079 ft 411 kts 130°
2026-05-07 18:51 50.57802 9.27533 23078 ft 411 kts 130°
2026-05-07 18:51 50.56006 9.31036 23077 ft 411 kts 130°
2026-05-07 18:51 50.54234 9.34489 23078 ft 411 kts 129°
2026-05-07 18:51 50.52437 9.37986 23077 ft 411 kts 129°
2026-05-07 18:52 50.50639 9.41481 23076 ft 411 kts 129°
2026-05-07 18:52 50.48842 9.44970 23072 ft 412 kts 129°
2026-05-07 18:52 50.47036 9.48471 23077 ft 413 kts 129°
2026-05-07 18:52 50.45228 9.51971 23074 ft 413 kts 129°
2026-05-07 18:53 50.43421 9.55465 23074 ft 412 kts 129°
2026-05-07 18:53 50.41612 9.58957 23075 ft 413 kts 129°
2026-05-07 18:53 50.39801 9.62449 23075 ft 413 kts 129°
2026-05-07 18:53 50.37990 9.65937 23075 ft 413 kts 129°
2026-05-07 18:54 50.36178 9.69422 23075 ft 412 kts 129°
2026-05-07 18:54 50.34364 9.72904 23083 ft 412 kts 130°
2026-05-07 18:54 50.32559 9.76368 23075 ft 409 kts 130°
2026-05-07 18:54 50.30756 9.79821 23076 ft 410 kts 130°
2026-05-07 18:55 50.28951 9.83273 23079 ft 410 kts 130°
2026-05-07 18:55 50.27143 9.86725 23075 ft 410 kts 130°
2026-05-07 18:55 50.25336 9.90172 23076 ft 410 kts 130°
2026-05-07 18:55 50.23525 9.93623 23078 ft 410 kts 130°
2026-05-07 18:56 50.21715 9.97065 23067 ft 411 kts 130°
2026-05-07 18:56 50.19897 10.00520 23075 ft 413 kts 130°
2026-05-07 18:56 50.18075 10.03977 23071 ft 412 kts 130°
2026-05-07 18:56 50.16253 10.07431 22888 ft 412 kts 130°
2026-05-07 18:57 50.14444 10.10854 22314 ft 407 kts 130°
2026-05-07 18:57 50.12651 10.14244 21654 ft 403 kts 130°
2026-05-07 18:57 50.10879 10.17591 21005 ft 398 kts 130°
2026-05-07 18:57 50.09123 10.20902 20369 ft 395 kts 130°
2026-05-07 18:58 50.07473 10.24308 19743 ft 393 kts 123°
2026-05-07 18:58 50.06160 10.28026 19141 ft 391 kts 115°
2026-05-07 18:58 50.05003 10.31857 18559 ft 392 kts 115°
2026-05-07 18:58 50.03842 10.35689 17901 ft 391 kts 115°
2026-05-07 18:59 50.02688 10.39476 17219 ft 382 kts 116°
2026-05-07 18:59 50.01553 10.43185 16580 ft 379 kts 116°
2026-05-07 18:59 50.00403 10.46866 15939 ft 378 kts 119°
2026-05-07 18:59 49.98839 10.50117 15313 ft 375 kts 133°
2026-05-07 19:00 49.97056 10.53060 14702 ft 373 kts 134°
2026-05-07 19:00 49.95280 10.55985 14100 ft 372 kts 134°
2026-05-07 19:00 49.93519 10.58880 13437 ft 364 kts 134°
2026-05-07 19:00 49.91802 10.61705 12802 ft 358 kts 134°
2026-05-07 19:01 49.90104 10.64495 12314 ft 353 kts 134°
2026-05-07 19:01 49.88425 10.67248 11953 ft 352 kts 134°
2026-05-07 19:01 49.86744 10.69996 11696 ft 351 kts 134°
2026-05-07 19:01 49.85061 10.72744 11448 ft 350 kts 134°
2026-05-07 19:02 49.83392 10.75466 11188 ft 346 kts 134°
2026-05-07 19:02 49.81759 10.78125 10939 ft 336 kts 134°
2026-05-07 19:02 49.80197 10.80668 10687 ft 324 kts 134°
2026-05-07 19:02 49.78686 10.83124 10434 ft 307 kts 134°
2026-05-07 19:03 49.77249 10.85460 10200 ft 296 kts 134°
2026-05-07 19:03 49.75817 10.87784 10086 ft 299 kts 134°
2026-05-07 19:03 49.74391 10.90098 10073 ft 297 kts 134°
2026-05-07 19:03 49.72979 10.92435 10073 ft 298 kts 130°
2026-05-07 19:04 49.71749 10.95007 10075 ft 298 kts 124°
2026-05-07 19:04 49.70596 10.97661 9974 ft 296 kts 124°
2026-05-07 19:04 49.69448 11.00299 9641 ft 295 kts 124°
2026-05-07 19:04 49.68304 11.02926 9251 ft 294 kts 124°
2026-05-07 19:05 49.67167 11.05541 8811 ft 293 kts 124°
2026-05-07 19:05 49.66032 11.08147 8356 ft 292 kts 124°
2026-05-07 19:05 49.64907 11.10761 7946 ft 291 kts 124°
2026-05-07 19:05 49.63792 11.13351 7566 ft 289 kts 124°
2026-05-07 19:06 49.62683 11.15924 7191 ft 287 kts 124°
2026-05-07 19:06 49.60481 11.21039 6417 ft 284 kts 124°
2026-05-07 19:06 49.59387 11.23563 6024 ft 283 kts 124°
2026-05-07 19:07 49.58294 11.26074 5609 ft 281 kts 124°
2026-05-07 19:07 49.57201 11.28572 5217 ft 280 kts 124°
2026-05-07 19:07 49.56114 11.31068 4788 ft 280 kts 124°
2026-05-07 19:07 49.55045 11.33522 4544 ft 268 kts 124°
2026-05-07 19:08 49.54036 11.35830 4386 ft 251 kts 124°
2026-05-07 19:08 49.53091 11.37984 4241 ft 235 kts 124°
2026-05-07 19:08 49.52200 11.40005 4036 ft 222 kts 124°
2026-05-07 19:08 49.51107 11.41607 4004 ft 226 kts 155°
2026-05-07 19:09 49.49617 11.42106 3993 ft 218 kts 183°
2026-05-07 19:09 49.48188 11.41546 3987 ft 211 kts 218°
2026-05-07 19:09 49.47296 11.39850 3989 ft 205 kts 252°
2026-05-07 19:09 49.47043 11.37724 3991 ft 202 kts 272°
2026-05-07 19:10 49.47137 11.35584 3991 ft 201 kts 279°
2026-05-07 19:10 49.47344 11.33476 3984 ft 196 kts 281°
2026-05-07 19:10 49.47533 11.31529 3927 ft 179 kts 281°
2026-05-07 19:10 49.47712 11.29719 3763 ft 166 kts 281°
2026-05-07 19:11 49.47887 11.27953 3530 ft 166 kts 281°
2026-05-07 19:11 49.48050 11.26277 3287 ft 150 kts 281°
2026-05-07 19:11 49.48205 11.24712 3092 ft 147 kts 282°
2026-05-07 19:11 49.48359 11.23144 2889 ft 149 kts 282°
2026-05-07 19:12 49.48515 11.21568 2683 ft 149 kts 282°
2026-05-07 19:12 49.48675 11.19990 2471 ft 149 kts 282°
2026-05-07 19:12 49.48822 11.18416 2269 ft 148 kts 281°
2026-05-07 19:12 49.48977 11.16845 2049 ft 149 kts 282°
2026-05-07 19:13 49.49157 11.15282 1809 ft 148 kts 282°
2026-05-07 19:13 49.49314 11.13719 1703 ft 151 kts 279°
2026-05-07 19:13 49.49456 11.12150 1470 ft 148 kts 279°
2026-05-07 19:13 49.49598 11.10595 1230 ft 146 kts 280°
2026-05-07 19:14 49.49751 11.09062 1058 ft 148 kts 281°
2026-05-07 19:14 49.49891 11.07691 1032 ft 96 kts 278°
2026-05-07 19:14 49.49944 11.07093 1023 ft 27 kts 261°
2026-05-07 19:14 49.49836 11.07040 1021 ft 0 kts 159°
2026-05-07 19:15 49.49834 11.07041 1021 ft 2 kts 159°
2026-05-07 19:15 49.49810 11.07056 1021 ft 6 kts 159°
2026-05-07 19:16 49.49758 11.07102 1023 ft 13 kts 131°
2026-05-07 19:16 49.49730 11.07276 1025 ft 21 kts 99°
2026-05-07 19:16 49.49706 11.07513 1030 ft 24 kts 99°
2026-05-07 19:16 49.49683 11.07737 1031 ft 17 kts 114°
2026-05-07 19:17 49.49596 11.07748 1029 ft 13 kts 204°
2026-05-07 19:17 49.49533 11.07727 1027 ft 0 kts 188°
2026-05-07 19:17 49.49525 11.07725 1025 ft 2 kts 189°
2026-05-07 19:17 49.49521 11.07724 1027 ft 0 kts 189°